[[{"header":{"parameterUnit":"m.s-1","parameterCategory":1,"la1":30.2991,"la2":30.254,"lo1":-89.0895,"lo2":-89.0444,"dy":0.0017,"dx":0.0017,"nx":28,"ny":28,"refTime":"2024-06-13T09:00:00:Z","depth":0,"parameterNumber":2,"parameterNumberName":"U-component_of_WINDS"},"data":[0,0,0,0,0,0,0,0,0,0,0,0,0,0,0,0,0,0,0,0,0,0,0,0,0,0,0,0,0,0,0,0,0,0,0,0,0,0,0,0,0,0,0,0,0,0,0,0,0,0,0,0,0,0,0,0,0,0,0.4455,0.4455,0,0.4396,0.4396,0.4395,0.4352,0.4352,0.4352,0.4351,0.4292,0.4291,0.4289,0,0,0,0,0,0,0,0,0,0,0,0,0,0.4532,0.4531,0.4455,0.4455,0.4454,0.4397,0.4396,0.4395,0.4353,0.4352,0.4352,0.4351,0.4292,0.4291,0.4289,0,0,0,0,0,0,0,0,0,0,0,0,0,0.4488,0.453,0.4456,0.4426,0.4423,0.4397,0.4396,0.4395,0.4353,0.4352,0.4352,0.4351,0.4293,0.4291,0.4289,0.4288,0,0,0.4283,0.4283,0,0,0,0,0,0,0,0,0.4491,0.4486,0.4431,0.4428,0.4424,0.4381,0.4401,0.4359,0.4353,0.4379,0.4351,0.4351,0.4322,0.4318,0.4308,0.4286,0.4283,0.4283,0.4282,0.4281,0.4281,0,0,0,0,0,0,0,0.4494,0.4488,0.4432,0.443,0.4426,0.4416,0.4409,0.4393,0.4354,0.4377,0.4374,0.4367,0.432,0.431,0.4306,0.4282,0.4283,0.4282,0.428,0.428,0.4257,0.4257,0,0,0,0,0,0,0.4502,0.4491,0.4434,0.443,0.4457,0.4415,0.4407,0.4396,0.4354,0.4348,0.4368,0.4365,0.4313,0.4308,0.4304,0.4301,0.4281,0.428,0.4278,0.4256,0.4257,0.4257,0,0,0,0,0,0,0.4503,0.4497,0.4436,0.446,0.4451,0.4414,0.4401,0.4395,0.4384,0.4348,0.4341,0.4364,0.4313,0.4307,0.4293,0.4298,0.4279,0.4277,0.4255,0.4256,0.4257,0.4294,0,0,0,0,0,0,0.4506,0.4498,0.4497,0.446,0.445,0.4426,0.4402,0.4394,0.4381,0.4378,0.4342,0.4336,0.4312,0.4296,0.4291,0.4295,0.4276,0.4255,0.4256,0.4257,0.4292,0.4296,0.4299,0,0,0,0,0,0.4509,0.451,0.4497,0.4491,0.4448,0.4426,0.4421,0.4392,0.4382,0.4381,0.4357,0.4337,0.4298,0.4295,0.4289,0.4293,0.4254,0.4255,0.4257,0.429,0.4295,0.4299,0,0,0,0,0,0,0.4549,0.4504,0.449,0.4479,0.4457,0.4419,0.4417,0.4398,0.4379,0.4376,0.4342,0.4335,0.4324,0.4307,0.4304,0.429,0.4274,0.4274,0.4302,0.4306,0.4309,0.4314,0.4274,0,0,0,0,0,0.4556,0.4542,0.4504,0.4498,0.4488,0.4454,0.4444,0.4424,0.4399,0.439,0.4365,0.4343,0.4325,0.4314,0.4296,0.4289,0.4281,0.4289,0.4293,0.4296,0.4296,0.4292,0.4295,0.4261,0.4261,0.4261,0,0,0.4572,0.4546,0.4539,0.4505,0.4486,0.4472,0.4447,0.4433,0.4422,0.4388,0.4373,0.4354,0.4327,0.4316,0.4311,0.4302,0.4304,0.4297,0.43,0.4299,0.4293,0.4296,0.4299,0.4262,0.4262,0.4261,0,0,0.4593,0.4572,0.4564,0.4545,0.4516,0.4494,0.4492,0.4457,0.4443,0.4428,0.4402,0.4389,0.436,0.4341,0.4328,0.4342,0.4323,0.4337,0.4356,0.4352,0.4355,0.4357,0.4362,0.4365,0.4338,0.4338,0.4338,0,0.4616,0.4594,0.4563,0.4551,0.4538,0.4505,0.4498,0.4481,0.4447,0.4439,0.4429,0.4392,0.4371,0.4356,0.436,0.435,0.4347,0.4341,0.4357,0.4359,0.436,0.4365,0.4367,0.434,0.434,0.434,0.4339,0,0.4624,0.4609,0.4607,0.4575,0.4561,0.4551,0.452,0.4509,0.4491,0.447,0.4455,0.4429,0.4405,0.44,0.4382,0.4382,0.4378,0.4363,0.4346,0.4366,0.437,0.4372,0.4343,0.4342,0.4342,0.4341,0,0,0.4669,0.462,0.462,0.4605,0.457,0.4558,0.4547,0.4524,0.4516,0.4494,0.4484,0.446,0.4446,0.4431,0.4411,0.4407,0.4421,0.4392,0.4391,0.4399,0.442,0.4432,0.4435,0.4408,0.4408,0.4408,0.4423,0,0.4685,0.4663,0.4636,0.4624,0.461,0.4579,0.4569,0.4547,0.4528,0.4513,0.4491,0.4475,0.4457,0.4448,0.4443,0.442,0.4425,0.4419,0.4399,0.4399,0.4407,0.4437,0.4449,0.4464,0.4424,0.4425,0.4425,0,0.4701,0.468,0.4667,0.4633,0.4626,0.4618,0.4595,0.4581,0.4556,0.4541,0.4525,0.4503,0.449,0.4475,0.4458,0.4454,0.4444,0.4432,0.4432,0.4429,0.4413,0.4436,0.4468,0.4471,0.4427,0.4427,0.4427,0,0.4735,0.4704,0.4692,0.468,0.4641,0.4636,0.462,0.4593,0.4581,0.4561,0.4552,0.4531,0.4519,0.4503,0.4476,0.4468,0.4462,0.4444,0.445,0.4451,0.4451,0.4451,0.4483,0.4444,0.4444,0.4444,0.4444,0,0.4756,0.475,0.4707,0.47,0.4691,0.466,0.4652,0.4633,0.461,0.4599,0.4571,0.4561,0.4526,0.4512,0.449,0.4479,0.4474,0.4463,0.4457,0.4465,0.4467,0.4459,0.4457,0.4444,0.4444,0.4444,0.4444,0,0.4794,0.4765,0.475,0.4714,0.4705,0.47,0.4669,0.4661,0.464,0.4626,0.4621,0.4587,0.4569,0.4541,0.4514,0.45,0.4493,0.4484,0.4502,0.4499,0.4506,0.4506,0.4534,0.4537,0.4496,0.4496,0.4497,0,0.4809,0.4803,0.4767,0.4757,0.4741,0.4726,0.4713,0.4682,0.467,0.4641,0.4636,0.4616,0.4598,0.4571,0.4545,0.4525,0.4515,0.4526,0.4512,0.452,0.4516,0.4517,0.4516,0.453,0.453,0.4531,0.4531,0,0.484,0.4826,0.4809,0.4787,0.4773,0.4754,0.4733,0.4727,0.4691,0.468,0.4661,0.4647,0.462,0.4601,0.4577,0.456,0.454,0.4536,0.4536,0.4545,0.4556,0.4551,0.4512,0.4536,0.4535,0.4535,0.4535,0.4534,0.4868,0.4861,0.4834,0.4816,0.4797,0.4779,0.477,0.4747,0.4731,0.4706,0.4689,0.4671,0.4646,0.4612,0.4597,0.4583,0.4574,0.4574,0.4574,0.4575,0.4578,0.4558,0.4578,0.4578,0.4578,0.4578,0.4578,0,0.4898,0.4879,0.4862,0.4835,0.482,0.4802,0.4779,0.4768,0.4753,0.4731,0.4714,0.4693,0.4674,0.4646,0.4625,0.462,0.461,0.4615,0.4616,0.4612,0.4587,0.4589,0.4624,0.4624,0.4624,0.4624,0.4624,0.4624,0.4912,0.4899,0.4882,0.4861,0.4842,0.4825,0.4813,0.4796,0.4778,0.4756,0.474,0.4722,0.4697,0.4675,0.4657,0.4649,0.4643,0.4651,0.4641,0.4618,0.4614,0.461,0.4612,0.465,0.465,0.4667,0.4667,0.4667]},{"header":{"parameterUnit":"m.s-1","parameterCategory":1,"la1":30.2991,"la2":30.254,"lo1":-89.0895,"lo2":-89.0444,"dy":0.0017,"dx":0.0017,"nx":28,"ny":28,"refTime":"2024-06-13T09:00:00:Z","depth":0,"parameterNumber":3,"parameterNumberName":"V-component_of_WINDS"},"data":[0,0,0,0,0,0,0,0,0,0,0,0,0,0,0,0,0,0,0,0,0,0,0,0,0,0,0,0,0,0,0,0,0,0,0,0,0,0,0,0,0,0,0,0,0,0,0,0,0,0,0,0,0,0,0,0,0,0,-3.3096,-3.3096,0,-3.3161,-3.3162,-3.3162,-3.3104,-3.3102,-3.31,-3.3098,-3.3161,-3.3165,-3.3169,0,0,0,0,0,0,0,0,0,0,0,0,0,-3.2918,-3.2921,-3.3095,-3.3096,-3.3097,-3.3161,-3.3162,-3.3163,-3.3105,-3.3102,-3.3099,-3.3096,-3.316,-3.3165,-3.3169,0,0,0,0,0,0,0,0,0,0,0,0,0,-3.299,-3.2923,-3.3095,-3.3076,-3.3075,-3.3161,-3.3162,-3.3163,-3.3105,-3.3102,-3.3098,-3.3095,-3.3159,-3.3164,-3.317,-3.3277,0,0,-3.3188,-3.3191,0,0,0,0,0,0,0,0,-3.2986,-3.2997,-3.3078,-3.3078,-3.3077,-3.3121,-3.3122,-3.3201,-3.3106,-3.3094,-3.3097,-3.3093,-3.3151,-3.3157,-3.3177,-3.328,-3.3283,-3.3189,-3.3192,-3.3195,-3.3196,0,0,0,0,0,0,0,-3.2981,-3.2994,-3.3121,-3.3079,-3.3078,-3.3063,-3.307,-3.3137,-3.3141,-3.3095,-3.3091,-3.3099,-3.3149,-3.3171,-3.3178,-3.3284,-3.3188,-3.3194,-3.3197,-3.3199,-3.3479,-3.3482,0,0,0,0,0,0,-3.2979,-3.299,-3.3119,-3.3123,-3.3022,-3.3069,-3.3076,-3.311,-3.314,-3.3142,-3.3102,-3.3096,-3.3163,-3.3171,-3.318,-3.3308,-3.3195,-3.32,-3.3203,-3.3475,-3.3479,-3.3484,0,0,0,0,0,0,-3.2975,-3.2991,-3.3116,-3.3056,-3.307,-3.3076,-3.3115,-3.3113,-3.3135,-3.3146,-3.3146,-3.3124,-3.3161,-3.3172,-3.3254,-3.3309,-3.3203,-3.3208,-3.347,-3.3476,-3.3482,-3.3564,0,0,0,0,0,0,-3.297,-3.299,-3.3031,-3.3057,-3.3074,-3.319,-3.3118,-3.3117,-3.3146,-3.3139,-3.3167,-3.3168,-3.3159,-3.3245,-3.326,-3.3315,-3.3213,-3.3465,-3.3473,-3.348,-3.3557,-3.3572,-3.3586,0,0,0,0,0,-3.2964,-3.3051,-3.3034,-3.305,-3.3126,-3.3194,-3.3203,-3.3192,-3.3151,-3.3192,-3.3199,-3.3167,-3.3301,-3.3254,-3.327,-3.3328,-3.3462,-3.3471,-3.3479,-3.355,-3.3569,-3.3585,0,0,0,0,0,0,-3.3031,-3.3054,-3.3035,-3.3133,-3.3162,-3.3184,-3.3236,-3.3212,-3.3253,-3.3244,-3.3227,-3.3234,-3.3321,-3.3332,-3.328,-3.3434,-3.3374,-3.3387,-3.3423,-3.3441,-3.3455,-3.3451,-3.3217,0,0,0,0,0,-3.3057,-3.3111,-3.3128,-3.3213,-3.3228,-3.323,-3.3259,-3.3248,-3.3276,-3.3288,-3.3301,-3.3329,-3.3378,-3.341,-3.3455,-3.3558,-3.3563,-3.3606,-3.362,-3.3632,-3.3643,-3.3699,-3.3718,-3.3512,-3.3512,-3.3512,0,0,-3.3111,-3.3131,-3.3166,-3.3227,-3.3248,-3.3304,-3.324,-3.3302,-3.3343,-3.3297,-3.3376,-3.3386,-3.3417,-3.351,-3.3551,-3.3522,-3.3701,-3.3643,-3.3652,-3.3657,-3.371,-3.3729,-3.3746,-3.3518,-3.3517,-3.3516,0,0,-3.3239,-3.3259,-3.3333,-3.3355,-3.3389,-3.3389,-3.3407,-3.3432,-3.3438,-3.3517,-3.3484,-3.3532,-3.3616,-3.3639,-3.3662,-3.3799,-3.3771,-3.3814,-3.389,-3.3945,-3.3961,-3.3975,-3.4025,-3.4043,-3.3825,-3.3825,-3.3825,0,-3.3302,-3.3386,-3.3373,-3.3437,-3.3465,-3.3428,-3.3501,-3.3524,-3.3569,-3.3589,-3.3556,-3.3661,-3.3678,-3.3777,-3.3811,-3.383,-3.3849,-3.3811,-3.396,-3.3974,-3.3987,-3.4034,-3.4053,-3.383,-3.383,-3.3829,-3.3829,0,-3.3462,-3.3521,-3.3576,-3.3623,-3.3656,-3.3725,-3.3722,-3.3758,-3.3744,-3.3747,-3.3828,-3.3848,-3.3897,-3.3919,-3.3906,-3.4016,-3.3997,-3.3962,-3.3902,-3.4012,-3.4056,-3.4074,-3.3837,-3.3836,-3.3834,-3.3833,0,0,-3.3634,-3.3673,-3.3694,-3.3715,-3.3749,-3.3793,-3.386,-3.3909,-3.394,-3.3973,-3.4029,-3.4101,-3.4069,-3.4095,-3.4083,-3.4131,-3.4239,-3.409,-3.409,-3.4118,-3.4363,-3.439,-3.4411,-3.4221,-3.4224,-3.4227,-3.4361,0,-3.3764,-3.3881,-3.3872,-3.3983,-3.4037,-3.4002,-3.406,-3.4087,-3.4092,-3.4138,-3.4143,-3.4195,-3.4148,-3.4164,-3.4209,-3.4217,-3.4289,-3.4207,-3.4272,-3.4275,-3.4267,-3.4434,-3.4462,-3.4587,-3.4378,-3.4381,-3.4383,0,-3.3931,-3.3971,-3.4088,-3.4115,-3.4137,-3.419,-3.4234,-3.4278,-3.4308,-3.4308,-3.4338,-3.4318,-3.4385,-3.4324,-3.4415,-3.436,-3.4386,-3.4394,-3.4398,-3.4404,-3.4336,-3.4445,-3.4627,-3.4646,-3.4409,-3.4407,-3.4405,0,-3.4045,-3.4128,-3.4209,-3.4228,-3.4261,-3.4299,-3.4314,-3.434,-3.4371,-3.4409,-3.4429,-3.4474,-3.4499,-3.4534,-3.4527,-3.4483,-3.4621,-3.4558,-3.4623,-3.4623,-3.4654,-3.4652,-3.4843,-3.467,-3.4669,-3.4669,-3.4669,0,-3.4191,-3.4264,-3.4261,-3.4311,-3.4392,-3.438,-3.4459,-3.447,-3.4494,-3.4545,-3.4516,-3.4564,-3.4552,-3.4599,-3.4594,-3.4671,-3.4682,-3.4684,-3.4682,-3.4687,-3.4687,-3.4705,-3.4696,-3.4674,-3.4673,-3.4672,-3.4671,0,-3.4333,-3.4334,-3.442,-3.4445,-3.4452,-3.4511,-3.4531,-3.4578,-3.4581,-3.4646,-3.466,-3.4665,-3.4719,-3.4716,-3.4777,-3.4773,-3.4868,-3.4856,-3.4859,-3.4857,-3.4921,-3.4916,-3.5131,-3.5159,-3.4967,-3.4968,-3.497,0,-3.4427,-3.4482,-3.4513,-3.4546,-3.4564,-3.4617,-3.4648,-3.4638,-3.4672,-3.471,-3.4752,-3.4804,-3.4845,-3.4934,-3.4942,-3.4989,-3.4977,-3.5049,-3.4984,-3.4988,-3.4979,-3.4976,-3.4982,-3.5062,-3.5065,-3.5066,-3.5068,0,-3.4593,-3.4591,-3.4638,-3.4685,-3.4724,-3.476,-3.4793,-3.4821,-3.4814,-3.4853,-3.491,-3.4942,-3.5005,-3.5057,-3.5101,-3.5116,-3.5091,-3.5088,-3.5106,-3.5112,-3.5112,-3.5114,-3.4895,-3.5084,-3.5082,-3.5081,-3.508,-3.5079,-3.4714,-3.4762,-3.4792,-3.4845,-3.4869,-3.4901,-3.4947,-3.4956,-3.5003,-3.5055,-3.5045,-3.5109,-3.5137,-3.5194,-3.5213,-3.5262,-3.5236,-3.5261,-3.5267,-3.5274,-3.5282,-3.5104,-3.527,-3.5269,-3.5269,-3.5268,-3.5268,0,-3.488,-3.4898,-3.4947,-3.4995,-3.5037,-3.5011,-3.5046,-3.5083,-3.5139,-3.5168,-3.5209,-3.5274,-3.5324,-3.5337,-3.5385,-3.5422,-3.5412,-3.5435,-3.5433,-3.5437,-3.5302,-3.5282,-3.5443,-3.5443,-3.5442,-3.5442,-3.5442,-3.5442,-3.4971,-3.5052,-3.5053,-3.5145,-3.5162,-3.5225,-3.5247,-3.5276,-3.53,-3.5374,-3.5416,-3.5424,-3.5446,-3.5496,-3.5541,-3.5544,-3.5563,-3.5591,-3.5589,-3.5463,-3.5446,-3.5429,-3.5411,-3.5595,-3.5596,-3.572,-3.5721,-3.5722]}]]